Regional Weather Roundup
Issued by NWS

Home | Current Version | Previous Version | Graphics & Text | Print | Product List | Glossary On
Versions: 1 2 3 4 5 6 7 8 9 10 11 12 13 14 15 16 17 18 19 20 21 22 23 24 25 26 27 28 29 30 31 32 33 34 35 36 37 38 39 40 41 42 43 44 45 46 47 48 49 50
401
ASUS43 KIND 060209
RWRIN

WEATHER ROUNDUP FOR INDIANA
NATIONAL WEATHER SERVICE INDIANAPOLIS IN
1000 PM EDT THU MAY 05 2016

NOTE: "FAIR" INDICATES FEW OR NO CLOUDS BELOW 12,000 FEET WITH NO
SIGNIFICANT WEATHER AND/OR OBSTRUCTIONS TO VISIBILITY.

* - STATION DOES NOT REPORT WEATHER SUCH AS PRECIPITATION OR FOG.

+ - STATION NOT QUALITY CONTROLLED BY THE NATIONAL WEATHER SERVICE.
    USE DATA WITH CAUTION...ESPECIALLY DEWPOINT AND RELATIVE
    HUMIDITY OBSERVATIONS.

INZ001>003-010>013-019-020-060300-
NORTHWEST INDIANA

CITY           SKY/WX    TMP DP  RH WIND       PRES   REMARKS
GARY /AIRPORT/ PTCLDY    46  46 100 CALM      29.99R
KNOX *+        CLEAR     46  36  66 N3        29.97R
LA PORTE +     CLEAR     47  41  79 NW3       29.97S
MICHIGAN CITY+ CLEAR     41  39  93 CALM      29.99R
MONTICELLO +   CLEAR     49  40  71 N7        29.96R
RENSSELAER +   CLEAR     52  41  66 N6        29.97S
VALPARAISO     CLEAR     49  37  63 N5        29.98R

$$

LMZ046-743>745-060300-
SOUTHERN LAKE MICHIGAN

STATION/POSITION TIME  TEMP    WIND        PRES    WAVE
                       AIR SEA DIR/SP/G            HT
                 (UTC) (F)     (DEG/KT/KT) (MB)    (FT)
BURNS HARBOR     0100   48      60/  3/  5 1015.6
MICHIGAN CITY    0100   46      30/  3/  3   N/A

$$

INZ004-005-014>016-021>024-060300-
NORTH CENTRAL INDIANA

CITY           SKY/WX    TMP DP  RH WIND       PRES   REMARKS
GOSHEN         CLEAR     51  41  68 NW10      29.95R
LOGANSPORT +   CLEAR     52  43  71 NW6       29.96S
PERU/GRISSOM   CLEAR     54  43  67 NW10      29.93R
ROCHESTER +    CLEAR     52  43  71 NW10      29.96R
SOUTH BEND     CLEAR     44  39  82 NW5       29.97S
WARSAW +       CLEAR     52  41  66 NW7       29.95R

$$

INZ006>009-017-018-025>027-060300-
NORTHEAST INDIANA

CITY           SKY/WX    TMP DP  RH WIND       PRES   REMARKS
ANGOLA *+        N/A     55  45  67 NW7       29.93R
AUBURN +       MOCLDY    57  43  58 NW7       29.93R
FORT WAYNE     PTCLDY    57  45  64 NW9       29.93R
HUNTINGTON +   CLEAR     54  43  67 NW7       29.93R

$$

INZ028-029-035-036-043>045-051>053-060300-
WEST CENTRAL INDIANA

CITY           SKY/WX    TMP DP  RH WIND       PRES   REMARKS
CRAWFORDSVL +  CLEAR     52  44  74 NW6       29.96R
GREENCASTLE +  CLEAR     55  45  67 NW5       29.96R
LAFAYETTE      CLEAR     51  41  68 N6        29.96R
TERRE HAUTE    CLEAR     56  41  57 NW6       29.96R

$$

INZ030>032-037>040-046>048-054>057-064-065-060300-
CENTRAL INDIANA

CITY           SKY/WX    TMP DP  RH WIND       PRES   REMARKS
CP ATTERBURY + PTCLDY    52  46  82 CALM      29.93S
COLUMBUS       CLOUDY    54  52  94 NW7       29.92R
FISHERS *+     CLEAR     54  46  76 N3        29.94R
FRANKFORT +      N/A     52  37  55 N6        29.98R
GREENWOOD *+   CLEAR     55  45  67 NW6       29.93R
INDIANAPOLIS   PTCLDY    55  43  63 NW9       29.92R
-EAGLE CREEK   CLEAR     56  44  64 N10       29.93R
KOKOMO *+      CLEAR     54  43  66 NW9       29.94R
MARION +       CLEAR     54  43  65 N8        29.94R
SHELBYVILLE    CLEAR     56  47  71 NW7       29.91R
ZIONSVILLE +   CLEAR     53  44  71 NW12      29.95R

$$

INZ033-034-041-042-049-050-058-059-060300-
EAST CENTRAL INDIANA

CITY           SKY/WX    TMP DP  RH WIND       PRES   REMARKS
MUNCIE         PTCLDY    56  46  69 N10       29.91R

$$

INZ060-061-067>069-081>083-085>088-060300-
SOUTHWEST INDIANA

CITY           SKY/WX    TMP DP  RH WIND       PRES   REMARKS
EVANSVILLE     CLEAR     53  46  77 W5        29.97R
HUNTINGBURG *+ MOCLDY    54  45  71 NW5       29.96R
WASHINGTON +   CLEAR     50  49  95 W5        29.95R

$$

INZ062-063-066-070>080-084-089>092-060300-
SOUTH CENTRAL AND SOUTHEAST INDIANA

CITY           SKY/WX    TMP DP  RH WIND       PRES   REMARKS
BLOOMINGTON    CLEAR     52  45  77 CALM      29.94R
MADISON *+     PTCLDY    54  45  71 W3        29.92R
NORTH VERNON + PTCLDY    50  50 100 CALM      29.92R

$$





USA.gov is the U.S. government's official web portal to all federal, state and local government web resources and services.